Home   Weather   Basti   Past weeks

Flag for India Past Weather in Basti, Uttar Pradesh, India — Yesterday and Last 2 Weeks

Now
48 °F

Fog.


Feels Like: 47 °F
Forecast: 49 / 75 °F
Wind: 3 mph from North

Location: Lucknow / Amausi

Current Time: Jan 17, 2017 at 8:37:56 am

Latest Report: Jan 17, 2017 at 8:00 am


Visibility: 0 mi

Pressure: 30.01 "Hg

Humidity: 100%

Dew Point: 48 °F

Location of BastiLocation

Past Weather in Basti — Graph

°F

Basti Temperature Yesterday

Maximum temperature yesterday: 77 °F (at 2:00 pm)
Minimum temperature yesterday: 43 °F (at 6:30 am)
Average temperature yesterday: 60 °F

High & Low Weather Summary for the Past Weeks

 TemperatureHumidityPressure
High77 °F (Jan 16, 2:00 pm)100% (Jan 2, 6:30 am)30.12 "Hg (Jan 2, 6:30 am)
Low36 °F (Jan 12, 5:00 am)29% (Jan 10, 1:00 pm)29.80 "Hg (Jan 7, 2:00 pm)
Average57 °F80%29.98 "Hg
* Reported Jan 2 6:30 am — Jan 17 7:00 am, Basti, Weather by CustomWeather, © 2017

Note: Actual official high and low records may vary slightly from our data, if they occured in-between our weather recording intervals... More about our weather records

Advertising

Basti Weather History for the Previous 24 Hours

Scroll right to see more
 ConditionsComfort  
Time TempWeatherWind HumidityBarometerVisibility
7:00 am
Tue, Jan 17
48 °FFog.3 mph87%29.98 "Hg1 mi
6:30 am48 °FFog.3 mph87%29.98 "Hg1 mi
6:00 am50 °FFog.3 mph88%29.98 "Hg1 mi
5:30 am50 °FFog.3 mph88%29.95 "Hg1 mi
5:00 am50 °FFog.3 mph88%29.95 "Hg1 mi
4:00 am52 °FFog.3 mph82%29.95 "Hg1 mi
3:00 am52 °FFog.5 mph82%29.95 "Hg1 mi
2:00 am52 °FFog.5 mph82%29.95 "Hg1 mi
1:00 am52 °FFog.3 mph82%29.95 "Hg1 mi
12:00 am52 °FFog.2 mph88%29.95 "Hg1 mi
11:00 pm
Mon, Jan 16
54 °FHaze.No wind77%29.98 "Hg1 mi
10:00 pm54 °FClear.No wind77%29.98 "Hg1 mi
9:00 pm55 °FClear.No wind72%29.98 "Hg1 mi
8:30 pm57 °FClear.2 mph67%29.98 "Hg1 mi
8:00 pm57 °FSmoke.2 mph63%29.98 "Hg1 mi
7:30 pm59 °FHaze.3 mph63%29.98 "Hg1 mi
7:00 pm64 °FHaze.No wind52%29.95 "Hg1 mi
6:30 pm64 °FHaze.2 mph52%29.95 "Hg1 mi
6:00 pm68 °FHaze.2 mph43%29.95 "Hg1 mi
5:30 pm70 °FHaze.2 mph40%29.95 "Hg1 mi
5:00 pm72 °FScattered clouds.3 mph36%29.95 "Hg2 mi
4:30 pm73 °FScattered clouds.5 mph33%29.95 "Hg2 mi
4:00 pm73 °FHaze.5 mph33%29.95 "Hg2 mi
3:00 pm75 °FHaze.3 mph34%29.95 "Hg2 mi
2:30 pm75 °FHaze.5 mph34%29.95 "Hg2 mi
2:00 pm77 °FHaze.3 mph32%29.95 "Hg2 mi
1:30 pm75 °FHaze.3 mph34%29.98 "Hg1 mi
1:00 pm75 °FHaze.3 mph31%29.98 "Hg1 mi
12:30 pm73 °FHaze.3 mph38%30.01 "Hg1 mi
12:00 pm72 °FHaze.3 mph38%30.01 "Hg1 mi
11:30 am68 °FHaze.3 mph46%30.04 "Hg1 mi
11:00 am64 °FHaze.3 mph60%30.04 "Hg1 mi
10:30 am61 °FFog.3 mph72%30.07 "Hg1 mi
10:00 am57 °FFog.3 mph77%30.07 "Hg1 mi
9:30 am54 °FFog.No wind88%30.07 "Hg1 mi
9:00 am50 °FFog.No wind88%30.04 "Hg1 mi
8:30 am46 °FFog.No wind93%30.04 "Hg0 mi
8:00 am45 °FFog.No wind93%30.01 "Hg0 mi
Weather by CustomWeather, © 2017

See weather overviewHow to use our weather pages